Regional Weather Roundup
Issued by NWS

Home | Current Version | Previous Version | Text Only | Print | Product List | Glossary Off
Versions: 1 2 3 4 5 6 7 8 9 10 11 12 13 14 15 16 17 18 19 20 21 22 23 24 25 26 27 28 29 30 31 32 33 34 35 36 37 38 39 40 41 42 43 44 45 46 47 48 49 50

121
ASUS45 KBOU 212007
RWRCO

WEATHER ROUNDUP FOR COLORADO
NATIONAL WEATHER SERVICE DENVER/BOULDER CO
200 PM MDT MON AUG 21 2017

NOTE: "FAIR" INDICATES FEW OR NO CLOUDS BELOW 12000 FEET WITH NO
SIGNIFICANT WEATHER AND/OR OBSTRUCTIONS TO VISIBILITY.

COZ001>005-013-030-031-212100-
...NORTHWEST COLORADO...

CITY           SKY/WX    TMP DP  RH WIND       PRES   REMARKS
CRAIG          FAIR      84  26  12 SW5       30.25F
HAYDEN         FAIR      80  35  19 NW7       30.29F
MEEKER         FAIR      84  36  18 SW8       30.24F
RABBIT EARS PA MOCLDY    61  32  33 NW3       30.58S
STEAMBOAT SPGS FAIR      78  38  23 W7        30.29F
WALDEN         FAIR      75  25  15 N13G18    30.40S
$$

COZ006>008-011-212100-
...WEST CENTRAL VALLEYS...

CITY           SKY/WX    TMP DP  RH WIND       PRES   REMARKS
GRAND JUNCTION FAIR      88  39  17 W8        30.13F
MONTROSE       FAIR      82  43  25 N7        30.22F
EAGLE          PTSUNNY   81  39  22 VRB5      30.27F
RIFLE          FAIR      85  37  18 W5        30.17F
DELTA          FAIR      88  37  16 S5        30.16F
NUCLA          FAIR      82  37  20 W5        30.25F
$$

COZ017>023-064>068-212100-
...SOUTHWEST COLORADO...

CITY           SKY/WX    TMP DP  RH WIND       PRES   REMARKS
DURANGO        FAIR      75  44  33 SW7       30.27F
CORTEZ         FAIR      79  49  34 VRB3      30.23F
PAGOSA SPRINGS FAIR      72  40  30 SW7       30.35F
TELLURIDE      FAIR      72  39  30 W15       30.44F
WOLF CREEK PAS CLOUDY    54  32  43 N14G21    30.67S
$$

COZ009-010-012-014-032>034-037-058>063-212100-
...CENTRAL COLORADO...

CITY           SKY/WX    TMP DP  RH WIND       PRES   REMARKS
ASPEN          FAIR      76  30  18 NW5       30.32F
BUENA VISTA    FAIR      74  33  22 NW13G28   30.34F
COPPER MTN     FAIR      64  30  27 N3        30.67S
BERTHOUD PASS  CLOUDY    54  48  82 NE6       30.71S
COTTONWOOD PAS PTSUNNY   66  28  24 W5G17     30.50S
GUNNISON       FAIR      75  42  30 CALM      30.31F
KREMMLING      FAIR      81  34  18 S3        30.34F
LEADVILLE      PTSUNNY   68  29  23 VRB7G21   30.47F
MONARCH PASS   FAIR      59  32  36 NE17G30   30.74S
SALIDA         FAIR      80  37  21 N8        30.37S
SUNLIGHT       PTSUNNY   59  32  36 CALM      30.62S THUNDER
WILKERSON PASS PTSUNNY   61  30  31 E8G18     30.64R
$$

COZ069>075-212100-
...SAN LUIS VALLEY/SANGRE DE CRISTO MOUNTAINS...

CITY           SKY/WX    TMP DP  RH WIND       PRES   REMARKS
ALAMOSA        FAIR      75  41  29 NW7       30.30F
DEL NORTE      FAIR      73  43  33 CALM      30.34F
LA VETA PASS   NOT AVBL
SAGUACHE       FAIR      75  43  31 S8        30.33F
$$

COZ035-036-038>040-212100-
...NORTHERN COLORADO FRONT RANGE...

CITY           SKY/WX    TMP DP  RH WIND       PRES   REMARKS
DENVER INTL AP FAIR      85  42  22 N18       30.18R
DMNS CITY PARK   N/A     81  43  25 NE9G21    30.19R
AURORA         PTSUNNY   83  46  27 NE14      30.21R
FRONT RANGE AP FAIR      82  43  24 N17G28    30.19S
ERIE MUNI ARPT FAIR      82  42  24 NE7       30.22S
BOULDER MUN AP FAIR      82  45  26 E6        30.18S
CENTENNIAL     PTSUNNY   83  41  22 N16       30.22R
BROOMFIELD     PTSUNNY   84  45  24 NE12G18   30.22R
FORT COLLINS   FAIR      83  44  25 N9        30.17R
LONGMONT       FAIR      87  46  24 E9        30.19R
$$

COZ041-046-047-076>085-087-088-212100-
...PIKES PEAK/PALMER DIVIDE AND SOUTHERN FOOTHILLS...

CITY           SKY/WX    TMP DP  RH WIND       PRES   REMARKS
COLO. SPRINGS  PTSUNNY   84  43  23 NE8       30.22S
A. F. ACADEMY  FAIR      80  41  24 N16       30.24S
SCHRIEVER AFB  FAIR      81  42  24 N10       30.23R
CHEYENNE MTN   PTSUNNY   76  47  35 NE8       30.23R
ELLICOTT       NOT AVBL
FALCON         FAIR      81  38  21 N9G17     30.29S
FORT CARSON    PTSUNNY   83  49  30 N6        30.19S
LIMON          FAIR      84  49  29 N16       30.16R
MONUMENT HILL  FAIR      75  43  31 NE10G18   30.31S
CANON CITY     SUNNY     86  50  28 E6        30.15S
WALSENBURG     FAIR      84  43  23 MISG      30.19R
TRINIDAD       FAIR      80  50  34 W9        30.17S
$$

COZ042>045-048>051-090-091-212100-
...NORTHEAST COLORADO...

CITY           SKY/WX    TMP DP  RH WIND       PRES   REMARKS
GREELEY ARPT   FAIR      84  45  25 NE18G25   30.14R
AKRON          FAIR      85  50  29 N18G26    30.11R
BURLINGTON     FAIR      86  58  38 NE8       30.04R
WRAY           NOT AVBL
YUMA           FAIR      82  45  26 N17G23    30.06R
STERLING       FAIR      82  59  44 N14G26    30.07R
HOLYOKE        FAIR      86  66  51 N16G23    30.04R
FORT MORGAN    FAIR      87  42  20 N21G29    30.13R
$$

COZ086-089-092>099-212100-
...SOUTHEAST COLORADO...

CITY           SKY/WX    TMP DP  RH WIND       PRES   REMARKS
PUEBLO         FAIR      89  47  23 VRB3      30.09S
LA JUNTA       FAIR      88  52  29 VRB7      30.06R
LAMAR          FAIR      85  54  34 W8        30.01S
SPRINGFIELD      N/A     82  62  50 S12       30.07F
$$




USA.gov is the U.S. government's official web portal to all federal, state and local government web resources and services.